This demonstration page uses our WeatherBlox Daily Observations layout. Learn more.

Left ArrowRight Arrow

47.50024, -111.30081

Hourly Observations for April 9, 2020

Temp ( °F °C ) Dew Point ( °F °C ) Humidity (%) Winds ( mph kmh ) Pressure ( in mb ) Visibility ( mi km ) Precip ( " mm )
12:53 am 00:53 Clear 29 -1.7 20 -6.7 69 69 NE 8 13 30.33 1027 10 16 0.00 0.00
1:53 am 01:53 Clear 29 -1.7 18 -7.8 63 63 E 9 15 30.34 1027 10 16 0.00 0.00
2:53 am 02:53 Clear 28 -2.2 15 -9.4 58 58 ENE 10 17 30.33 1027 10 16 0.00 0.00
3:53 am 03:53 Clear 26 -3.3 13 -10.6 57 57 E 8 13 30.32 1027 10 16 0.00 0.00
4:53 am 04:53 Clear 25 -3.9 13 -10.6 60 60 ENE 5 7 30.31 1027 10 16 0.00 0.00
5:53 am 05:53 Clear 23 -5 13 -10.6 65 65 NNE 3 6 30.32 1027 10 16 0.00 0.00
6:53 am 06:53 Sunny 21 -6.1 13 -10.6 71 71 SSE 3 6 30.32 1027 10 16 0.00 0.00
7:53 am 07:53 Sunny 22 -5.6 16 -8.9 78 78 Calm 30.32 1027 10 16 0.00 0.00
8:53 am 08:53 Sunny 30 -1.1 16 -8.9 56 56 S 5 7 30.27 1025 10 16 0.00 0.00
9:53 am 09:53 Sunny 37 2.8 21 -6.1 52 52 VRB 5 7 30.22 1023 10 16 0.00 0.00
10:53 am 10:53 Sunny 43 6.1 22 -5.6 43 43 E 9 15 30.18 1022 10 16 0.00 0.00
11:53 am 11:53 Sunny 49 9.4 23 -5 36 36 ESE 9 15 30.14 1021 10 16 0.00 0.00
12:53 pm 12:53 Sunny 52 11.1 23 -5 32 32 VRB 6 9 30.11 1020 10 16 0.00 0.00
1:53 pm 13:53 Sunny 57 13.9 23 -5 27 27 VRB 7 11 30.06 1018 10 16 0.00 0.00
2:53 pm 14:53 Sunny 59 15 19 -7.2 21 21 WNW 6 9 30.03 1017 10 16 0.00 0.00
3:53 pm 15:53 Sunny 59 15 20 -6.7 22 22 ESE 5 7 30.00 1016 10 16 0.00 0.00
4:53 pm 16:53 Sunny 62 16.7 22 -5.6 21 21 WSW 5 7 29.96 1015 10 16 0.00 0.00
5:53 pm 17:53 Sunny 63 17.2 22 -5.6 21 21 N 7 11 29.96 1015 10 16 0.00 0.00
6:53 pm 18:53 Sunny 59 15 23 -5 25 25 ENE 9 15 29.96 1015 10 16 0.00 0.00
7:53 pm 19:53 Sunny 53 11.7 22 -5.6 30 30 ENE 9 15 29.96 1015 10 16 0.00 0.00
8:53 pm 20:53 Clear 50 10 22 -5.6 33 33 E 8 13 29.96 1015 10 16 0.00 0.00
9:53 pm 21:53 Clear 47 8.3 22 -5.6 37 37 ESE 7 11 29.95 1014 10 16 0.00 0.00
10:53 pm 22:53 Clear 44 6.7 22 -5.6 41 41 SSE 8 13 29.92 1013 10 16 0.00 0.00
11:53 pm 23:53 Clear 35 1.7 23 -5 61 61 SW 12 19 29.92 1013 10 16 0.00 0.00

Powered by AerisWeather